Location: Schommer Observatory
(40.5200°N, 74.4500°W)
Time: 19:04:06
(UTC-04:00)

X-37B - Pass Details

Date: 13 October 2017
Orbit: 259 x 286 km, 43.2° (Epoch: 06 October)

Event Time Altitude Azimuth Distance (km) Brightness Sun altitude
Exits shadow 05:18:45 19° 92° (E) 695 4.3 -21.3°
Drops below altitude 10° 05:19:36 10° 83° (E) 1,028 5.4 -21.1°
Sets 05:21:33 0° 75° (ENE) 1,837 7.1 -20.8°
